Stations météo

réclame
Mon MeteoGroup
Hastveda, Suède (2629): Température de l'air & dewpoint: 08.08.2018 23:00:00 - 14.08.2018 23:00:00 (CEST)Hastveda, Suède (2629): Vitesse du vent & gusts: 08.08.2018 23:00:00 - 14.08.2018 23:00:00 (CEST)Hastveda, Suède (2629): Direction du vent: 08.08.2018 23:00:00 - 14.08.2018 23:00:00 (CEST)Hastveda, Suède (2629): reduced air pressure: 08.08.2018 23:00:00 - 14.08.2018 23:00:00 (CEST)Hastveda, Suède (2629): visibility: 08.08.2018 23:00:00 - 14.08.2018 23:00:00 (CEST)Hastveda, Suède (2629): Quantités de précipitations: 08.08.2018 23:00:00 - 14.08.2018 23:00:00 (CEST)
Date & Time tt [°C] td [°C] ff [km/h] ff [knt] fx [km/h] fx [knt] dd ppp [hPa] vv [km] rr [mm]
14.08.2018 23:00:00 16,2 16,0 7 4 14 8 W 1007,7 7 0,0
14.08.2018 22:00:00 16,1 15,8 7 4 18 10 W 1007,2 10 0,0
14.08.2018 21:00:00 16,7 16,2 7 4 18 10 WNW 1007,1 40 0,0
14.08.2018 20:00:00 17,4 17,1 4 2 22 12 W 1006,4 20 0,0
14.08.2018 19:00:00 18,2 17,9 14 8 22 12 W 1006,1 35 1,0
14.08.2018 18:00:00 19,4 19,2 7 4 18 10 W 1005,7 45 0,1
14.08.2018 17:00:00 17,8 17,8 11 6 18 10 WSW 1005,7 11 0,3
14.08.2018 16:00:00 19,0 19,0 4 2 7 4 SSE 1005,5 14 0,0
14.08.2018 15:00:00 17,9 17,9 0 0 7 4 N 1005,4 18 0,3
14.08.2018 14:00:00 17,2 17,2 0 0 7 4 N 1005,3 2,1 2,0
14.08.2018 13:00:00 17,0 17,0 4 2 7 4 SE 1005,2 3,0 0,7
14.08.2018 12:00:00 17,1 17,1 4 2 11 6 S 1005,0 3,3 11,0
14.08.2018 11:00:00 17,6 17,6 4 2 18 10 SW 1005,2 0,8 12,0
14.08.2018 10:00:00 17,2 17,2 11 6 14 8 E 1005,0 0,3 15,0
14.08.2018 09:00:00 17,0 17,0 7 4 14 8 E 1005,2 1,4 0,0
14.08.2018 08:00:00 16,1 16,1 7 4 18 10 E 1005,2 1,1 0,3
14.08.2018 07:00:00 15,3 15,3 7 4 14 8 E 1005,6 1,5 0,0
14.08.2018 06:00:00 15,0 15,0 7 4 14 8 ENE 1005,9 1,3 0,0
14.08.2018 05:00:00 14,8 14,8 7 4 14 8 E 1006,3 1,8 0,0
14.08.2018 04:00:00 14,9 14,9 11 6 14 8 ENE 1006,8 2,0 0,0
14.08.2018 03:00:00 14,9 14,9 7 4 14 8 ENE 1007,3 1,6 0,2
14.08.2018 02:00:00 14,8 14,8 7 4 14 8 ENE 1007,8 1,5 0,7
14.08.2018 01:00:00 14,9 14,9 7 4 14 8 E 1008,5 1,4 0,1
14.08.2018 00:00:00 15,1 15,1 7 4 14 8 E 1008,8 1,4 0,1
13.08.2018 23:00:00 14,9 14,9 7 4 11 6 ESE 1009,1 1,1 0,1
13.08.2018 22:00:00 15,0 15,0 4 2 14 8 E 1009,0 0,9 0,4
13.08.2018 21:00:00 15,0 15,0 7 4 14 8 ESE 1009,0 2,2 0,0
13.08.2018 20:00:00 15,3 15,3 7 4 14 8 ESE 1009,0 2,7 0,1
13.08.2018 19:00:00 15,4 15,4 4 2 14 8 ESE 1009,1 1,9 0,1
13.08.2018 18:00:00 15,5 15,5 7 4 14 8 E 1009,2 2,2 0,1
13.08.2018 17:00:00 15,3 15,3 7 4 14 8 ESE 1009,9 4,4 0,0
13.08.2018 16:00:00 15,0 15,0 7 4 14 8 ESE 1010,1 3,7 0,2
13.08.2018 15:00:00 14,4 14,4 7 4 14 8 ESE 1010,3 2,5 0,3
13.08.2018 14:00:00 13,9 13,9 7 4 14 8 E 1010,4 5 0,3
13.08.2018 13:00:00 13,2 13,2 7 4 14 8 ESE 1010,6 5 0,9
13.08.2018 12:00:00 12,9 12,9 7 4 18 10 E 1010,7 6 1,0
13.08.2018 11:00:00 12,8 12,8 7 4 14 8 E 1010,6 2,4 1,0
13.08.2018 10:00:00 12,9 12,9 7 4 11 6 E 1010,4 2,7 0,6
13.08.2018 09:00:00 12,5 12,5 7 4 11 6 E 1010,5 3,9 1,0
13.08.2018 08:00:00 12,2 12,2 7 4 11 6 E 1010,4 2,8 0,9
13.08.2018 07:00:00 12,2 12,2 7 4 11 6 E 1010,2 2,3 0,8
13.08.2018 06:00:00 11,8 11,8 4 2 11 6 ESE 1010,5 2,2 0,9
13.08.2018 05:00:00 11,7 11,7 4 2 7 4 ESE 1010,6 2,0 0,9
13.08.2018 04:00:00 11,6 11,6 4 2 7 4 SSE 1011,1 1,7 1,0
13.08.2018 03:00:00 11,5 11,5 4 2 4 2 S 1011,3 3,1 0,8
13.08.2018 02:00:00 11,2 11,0 0 0 4 2 N 1011,7 6 0,4
13.08.2018 01:00:00 11,3 11,1 0 0 4 2 N 1012,2 10 0,1
13.08.2018 00:00:00 11,4 11,2 0 0 11 6 N 1012,1 11 0,3
12.08.2018 23:00:00 11,4 11,2 7 4 14 8 WSW 1012,3 18 0,3
12.08.2018 22:00:00 11,5 11,3 7 4 14 8 WSW 1012,7 17 0,3
12.08.2018 21:00:00 11,6 11,1 7 4 25 14 WSW 1013,1 23 0,5
12.08.2018 20:00:00 12,9 12,3 11 6 25 14 WSW 1012,8 15 0,8
12.08.2018 19:00:00 14,1 12,0 11 6 29 16 W 1012,9 24 0,2
12.08.2018 18:00:00 15,5 11,3 14 8 29 16 W 1012,7 45 0,0
12.08.2018 17:00:00 15,6 12,4 11 6 29 16 W 1012,8 45 0,0
12.08.2018 16:00:00 14,7 11,8 14 8 50 27 W 1013,0 50 0,8
12.08.2018 15:00:00 18,5 8,5 18 10 40 21 W 1012,6 45 0,0
12.08.2018 14:00:00 18,2 9,0 18 10 36 19 W 1012,8 45 0,1
12.08.2018 13:00:00 16,2 9,8 18 10 43 23 W 1013,2 45 0,0
12.08.2018 12:00:00 16,8 8,5 25 14 47 25 W 1012,8 45 0,0
12.08.2018 11:00:00 16,5 10,4 22 12 40 21 W 1012,6 45 0,0
12.08.2018 10:00:00 14,9 11,9 18 10 40 21 W 1012,6 45 0,1
12.08.2018 09:00:00 14,1 11,6 22 12 40 21 W 1012,6 35 0,0
12.08.2018 08:00:00 13,1 12,3 14 8 25 14 W 1012,2 35 0,0
12.08.2018 07:00:00 11,6 11,3 14 8 22 12 W 1012,0 22 0,0
12.08.2018 06:00:00 11,5 11,0 14 8 29 16 W 1011,8 21 0,0
12.08.2018 05:00:00 11,9 11,7 14 8 25 14 W 1011,4 17 0,0
12.08.2018 04:00:00 11,6 11,4 14 8 25 14 W 1011,4 12 0,0
12.08.2018 03:00:00 10,5 10,3 11 6 29 16 WSW 1011,4 12 0,7
12.08.2018 02:00:00 10,9 10,6 18 10 40 21 WNW 1011,7 2,6 8,0
12.08.2018 01:00:00 11,7 11,5 11 6 25 14 W 1011,2 4,2 8,0
12.08.2018 00:00:00 11,5 11,3 11 6 22 12 WSW 1011,2 8 5,0
11.08.2018 23:00:00 11,6 11,3 11 6 25 14 W 1011,3 5 4,0
11.08.2018 22:00:00 11,8 10,0 4 2 7 4 WSW 1010,7 50 0,0
11.08.2018 21:00:00 13,7 9,9 4 2 22 12 WNW 1010,8 50 0,0
11.08.2018 20:00:00 15,5 9,2 7 4 25 14 WSW 1010,8 50 0,0
11.08.2018 19:00:00 16,8 10,6 11 6 29 16 SW 1010,7 50 0,0
11.08.2018 18:00:00 18,7 11,8 11 6 29 16 SSW 1011,0 40 0,0
11.08.2018 17:00:00 16,9 10,0 11 6 32 18 WSW 1011,6 45 0,0
11.08.2018 16:00:00 19,1 9,3 18 10 36 19 WSW 1011,8 45 0,0
11.08.2018 15:00:00 18,6 13,9 18 10 36 19 WSW 1012,2 45 0,0
11.08.2018 14:00:00 14,1 12,0 18 10 40 21 WSW 1012,6 7 2,0
11.08.2018 13:00:00 18,9 11,9 11 6 32 18 SE 1013,0 45 0,0
11.08.2018 12:00:00 16,2 15,1 7 4 32 18 SE 1014,0 35 0,5
11.08.2018 11:00:00 22,0 11,4 14 8 32 18 S 1014,7 45 0,0
11.08.2018 10:00:00 19,7 13,6 11 6 25 14 S 1015,5 45 0,0
11.08.2018 09:00:00 16,0 12,9 7 4 14 8 SE 1016,5 45 0,0
11.08.2018 08:00:00 13,5 11,7 7 4 11 6 ESE 1016,9 45 0,0
11.08.2018 07:00:00 12,2 11,3 7 4 11 6 ESE 1017,6 45 0,0
11.08.2018 06:00:00 11,4 10,5 7 4 7 4 ESE 1018,2 45 0,0
11.08.2018 05:00:00 10,9 10,1 4 2 7 4 SSE 1018,4 45 0,0
11.08.2018 04:00:00 11,2 9,9 4 2 7 4 SSE 1018,9 45 0,0
11.08.2018 03:00:00 11,6 10,3 4 2 11 6 SE 1019,0 45 0,0
11.08.2018 02:00:00 13,1 10,3 7 4 14 8 SSW 1019,2 45 0,0
11.08.2018 01:00:00 13,4 9,4 7 4 14 8 SSW 1019,4 50 0,0
11.08.2018 00:00:00 14,1 8,9 7 4 14 8 SW 1019,4 50 0,0
10.08.2018 23:00:00 14,7 9,9 7 4 14 8 SSW 1019,0 50 0,0
10.08.2018 22:00:00 15,9 10,0 7 4 14 8 WSW 1018,9 50 0,0
10.08.2018 21:00:00 17,6 10,0 7 4 18 10 W 1018,1 45 0,0
10.08.2018 20:00:00 18,7 9,7 11 6 32 18 W 1017,6 45 0,0
10.08.2018 19:00:00 20,0 9,0 14 8 40 21 W 1017,5 45 0,0
10.08.2018 18:00:00 20,7 9,3 22 12 40 21 W 1017,1 40 0,0
10.08.2018 17:00:00 19,9 10,6 14 8 40 21 W 1016,7 45 0,0
10.08.2018 16:00:00 21,3 9,5 22 12 43 23 W 1016,0 40 0,0
10.08.2018 15:00:00 20,2 11,7 18 10 43 23 W 1015,3 45 0,0
10.08.2018 14:00:00 20,9 12,1 18 10 43 23 W 1014,3 45 0,0
10.08.2018 13:00:00 21,4 13,3 18 10 36 19 W 1013,2 40 0,0
10.08.2018 12:00:00 20,6 13,8 18 10 36 19 WSW 1012,5 45 0,0
10.08.2018 11:00:00 20,3 15,3 14 8 43 23 WSW 1011,5 45 0,0
10.08.2018 10:00:00 19,7 15,6 22 12 40 21 SW 1010,6 45 0,0
10.08.2018 09:00:00 18,8 16,0 22 12 43 23 SW 1010,0 45 0,0
10.08.2018 08:00:00 18,4 17,9 18 10 43 23 WSW 1008,8 28 0,0
10.08.2018 07:00:00 18,9 18,9 11 6 22 12 S 1008,1 2,6 0,0
10.08.2018 06:00:00 18,5 18,5 7 4 18 10 SSE 1007,8 2,5 0,0
10.08.2018 05:00:00 18,1 18,1 7 4 14 8 SE 1007,6 2,1 0,0
10.08.2018 04:00:00 18,2 18,2 7 4 14 8 ESE 1007,8 2,4 0,0
10.08.2018 03:00:00 18,2 18,0 7 4 36 19 ENE 1007,3 1,9 7,0
10.08.2018 02:00:00 18,7 17,7 18 10 43 23 WSW 1010,9 0,3 7,0
10.08.2018 01:00:00 20,0 15,8 11 6 22 12 E 1008,6 40 0,0
10.08.2018 00:00:00 19,5 16,5 11 6 14 8 ESE 1009,7 40 0,0
09.08.2018 23:00:00 20,0 17,2 7 4 18 10 ESE 1011,4 40 0,0
09.08.2018 22:00:00 20,6 17,0 7 4 18 10 ESE 1012,1 40 0,0
09.08.2018 21:00:00 21,8 16,1 7 4 14 8 SE 1012,6 40 0,0
09.08.2018 20:00:00 23,2 16,5 7 4 18 10 ESE 1013,0 45 0,0
09.08.2018 19:00:00 25,0 17,0 7 4 18 10 SE 1013,3 22 0,0
09.08.2018 18:00:00 27,3 15,0 7 4 22 12 SSE 1013,6 45 0,0
09.08.2018 17:00:00 27,8 12,6 14 8 25 14 SSW 1014,2 35 0,0
09.08.2018 16:00:00 28,2 12,9 11 6 22 12 SW 1014,6 40 0,0
09.08.2018 15:00:00 26,8 12,8 7 4 22 12 SSW 1015,0 45 0,0
09.08.2018 14:00:00 26,0 13,1 11 6 22 12 WSW 1015,3 40 0,0
09.08.2018 13:00:00 26,0 14,5 7 4 22 12 SSW 1015,6 40 0,0
09.08.2018 12:00:00 22,6 15,4 7 4 22 12 W 1016,2 40 0,0
09.08.2018 11:00:00 22,1 16,1 4 2 14 8 W 1016,2 40 0,0
09.08.2018 10:00:00 20,7 16,3 7 4 14 8 W 1016,1 45 0,0
09.08.2018 09:00:00 19,2 17,3 4 2 14 8 WNW 1015,9 30 0,0
09.08.2018 08:00:00 18,3 18,1 7 4 14 8 W 1015,4 8 0,0
09.08.2018 07:00:00 17,8 17,6 7 4 14 8 W 1015,1 3,6 0,0
09.08.2018 06:00:00 18,0 17,8 7 4 11 6 W 1014,3 3,6 0,0
09.08.2018 05:00:00 18,2 18,0 4 2 11 6 W 1013,8 3,6 0,0
09.08.2018 04:00:00 18,7 18,4 7 4 14 8 WNW 1013,5 4,9 0,0
09.08.2018 03:00:00 19,2 18,9 7 4 18 10 W 1013,3 7 0,0
09.08.2018 02:00:00 19,2 19,0 11 6 18 10 WNW 1012,7 7 0,0
09.08.2018 01:00:00 19,8 19,6 4 2 14 8 W 1012,2 2,7 0,0
09.08.2018 00:00:00 19,6 19,4 4 2 7 4 W 1011,7 1,7 0,0
08.08.2018 23:00:00 20,1 19,9 4 2 7 4 WNW 1011,1 1,6 0,0

tt = Température de l'air
td = dewpoint
ff = Vitesse du vent
fx = gusts
dd = Direction du vent
ppp = reduced air pressure
vv = visibility
rr = Quantités de précipitations

stations d'obs. à proximité